sat.trackr.live / text

‹ back to catalog

STARLINK-37950

NORAD 69560 · 2026-135Q

PAYLOAD ACTIVE UNKNOWN

§ Identity

Operator
Country
US
Launch date
2026-06-15
Launch site
AFWTR
Launch vehicle
Mass (kg)
RCS (m²)

Purposes: comms

External: N2YO · Heavens-Above · Gunter

§ Orbital elements

Epoch: 2026-09-20T01:22:06.866688Z

Period
93.91 min
Inclination
97.2860°
Eccentricity
0.0000552
Mean motion
15.33450368 rev/d
Perigee alt
465.1 km
Apogee alt
465.9 km
Semi-major
6,843.7 km
B*
4.3636e-4
RAAN
290.7716°
Arg perigee
156.6849°
Mean anomaly
203.4419°
Rev number
1,493

§ Raw data

STARLINK-379501 69560U 26135Q   26263.05702392  .00014041  00000+0  43636-3 0  99942 69560  97.2860 290.7716 0000552 156.6849 203.4419 15.33450368 14931

JSON: /api/v1/satellites/69560 · /tle

For live sub-satellite position, see the globe view (requires WebGL).

§ Visibility from observer

Set your observer location to see the next 7 days of passes ≥ 10°. The values pass through the URL so the page stays shareable.

No JS? Fill the form by hand. The geolocation button needs JavaScript.